CW3081 Weather Reports


time (UTC)temp
C
wind
direction
speed
KPH
gust
KPH
rain 1hr
cm
rain 24hr
cm
rain mn
cm
humidity
%
barometer
mb
20260906023058 26 0 0.0 0.0 0.00 0.00 0.00 89 1011.5
20260906021601 26 0 0.0 0.0 0.00 0.00 0.00 89 1011.2
20260906020100 27 0 0.0 0.0 0.00 0.00 0.00 89 1011.2
20260906014634 27 0 0.0 0.0 0.00 0.00 0.00 88 1011.3
20260906013059 27 0 0.0 0.0 0.00 0.00 0.00 88 1011.4
20260906011554 27 0 0.0 0.0 0.00 0.00 0.00 87 1011.4
20260906010053 28 0 0.0 0.0 0.00 0.00 0.00 83 1011.4
20260906004610 28 0 0.0 0.0 0.00 0.00 0.00 83 1011.4
20260906003108 28 0 0.0 0.0 0.00 0.00 0.00 82 1011.2
20260906001551 29 0 0.0 0.0 0.00 0.00 0.00 82 1011.3
20260906000051 30 0 0.0 0.0 0.00 0.00 0.00 81 1011.3
20260905234609 31 0 0.0 0.0 0.00 0.00 0.00 79 1011.5
20260905233053 31 0 0.0 0.0 0.00 0.00 0.00 76 1011.5
20260905231549 32 0 0.0 0.0 0.00 0.00 0.00 73 1011.3
20260905230136 32 0 0.0 0.0 0.00 0.00 0.00 70 1011.4
20260905224602 32 0 0.0 0.0 0.00 0.00 0.00 68 1011.2
20260905223100 33 0 0.0 0.0 0.00 0.00 0.00 67 1011.3
20260905221612 33 0 0.0 0.0 0.00 0.00 0.00 63 1011.3
20260905220055 33 0 0.0 0.0 0.00 0.00 0.00 58 1011.5
20260905214603 33 0 0.0 0.0 0.00 0.00 0.00 59 1011.5
20260905213106 33 4 0.0 1.6 0.00 0.00 0.00 57 1011.5
20260905211602 33 4 0.0 0.0 0.00 0.00 0.00 55 1011.5
20260905210058 33 0 0.0 1.6 0.00 0.00 0.00 58 1011.8
20260905204550 34 0 0.0 1.6 0.00 0.00 0.00 58 1012.0
20260905203104 34 4 0.0 1.6 0.00 0.00 0.00 58 1012.1
20260905201615 34 359 0.0 3.2 0.00 0.00 0.00 56 1012.3
20260905200054 35 254 1.6 3.2 0.00 0.00 0.00 56 1012.5
20260905194600 35 245 0.0 3.2 0.00 0.00 0.00 56 1012.8
20260905193112 35 0 0.0 1.6 0.00 0.00 0.00 59 1012.8
20260905191556 35 0 0.0 3.2 0.00 0.00 0.00 57 1013.0
20260905190054 35 103 1.6 6.4 0.00 0.00 0.00 55 1013.3
20260905184555 35 51 1.6 3.2 0.00 0.00 0.00 56 1013.6
20260905183050 35 7 0.0 3.2 0.00 0.00 0.00 56 1013.7
20260905181608 35 0 0.0 3.2 0.00 0.00 0.00 56 1013.8
20260905180052 33 0 1.6 3.2 0.00 0.00 0.00 58 1014.1
20260905174556 33 0 0.0 3.2 0.00 0.00 0.00 61 1014.2
20260905173053 33 341 0.0 3.2 0.00 0.00 0.00 60 1014.2
20260905171557 32 0 0.0 3.2 0.00 0.00 0.00 64 1014.4
20260905170051 32 0 0.0 3.2 0.00 0.00 0.00 65 1014.4
20260905164603 32 0 0.0 0.0 0.00 0.00 0.00 69 1014.6
20260905163049 31 0 0.0 0.0 0.00 0.00 0.00 72 1014.9
20260905161603 30 0 0.0 0.0 0.00 0.00 0.00 72 1014.8
20260905160052 30 0 0.0 0.0 0.00 0.00 0.00 76 1015.0
20260905154559 29 0 0.0 0.0 0.00 0.00 0.00 81 1015.1
20260905153051 28 0 0.0 0.0 0.00 0.00 0.00 82 1015.3
20260905151602 27 0 0.0 0.0 0.00 0.00 0.00 82 1015.4
20260905150051 27 0 0.0 0.0 0.00 0.00 0.00 84 1015.4
20260905144549 26 0 0.0 0.0 0.00 0.00 0.00 86 1015.5
20260905143049 -17 0.0 0.0 0.00 0.00 0.00 1015.4
20260905141558 -17 0.0 0.0 0.00 0.00 0.00 1015.4
20260905140050 -17 0.0 0.0 0.00 0.00 0.00 1015.3
20260905134552 -17 0.0 0.0 0.00 0.00 0.00 1015.3
20260905133055 -17 0.0 0.0 0.00 0.00 0.00 1015.3
20260905131607 -17 0.0 0.0 0.00 0.00 0.00 1015.4
20260905130051 -17 0.0 0.0 0.00 0.00 0.00 1015.3
20260905124551 -17 0.0 0.0 0.00 0.00 0.00 1015.3
20260905123100 -17 0.0 0.0 0.00 0.00 0.00 1015.3
20260905121551 -17 0.0 0.0 0.00 0.00 0.00 1015.2
20260905120049 -17 0.0 0.0 0.00 0.00 0.00 1015.1
20260905114600 -17 0.0 0.0 0.00 0.00 0.00 1014.7
20260905113055 -17 0.0 0.0 0.00 0.00 0.00 1014.6
20260905111603 -17 0.0 0.0 0.00 0.00 0.00 1014.4
20260905110056 -17 0.0 0.0 0.00 0.00 0.00 1014.3
20260905104613 -17 0.0 0.0 0.00 0.00 0.00 1014.2
20260905103053 -17 0.0 0.0 0.00 0.00 0.00 1013.9
20260905101602 -17 0.0 0.0 0.00 0.00 0.00 1014.0
20260905100107 22 0 0.0 0.0 0.00 0.00 0.00 95 1013.8
20260905094602 22 0 0.0 0.0 0.00 0.00 0.00 95 1013.8
20260905093055 22 0 0.0 0.0 0.00 0.00 0.00 95 1013.8
20260905091608 22 0 0.0 0.0 0.00 0.00 0.00 95 1013.9
20260905090059 22 0 0.0 0.0 0.00 0.00 0.00 95 1013.9
20260905084607 22 0 0.0 0.0 0.00 0.00 0.00 95 1013.9
20260905083053 22 0 0.0 0.0 0.00 0.00 0.00 94 1014.0
20260905081550 22 0 0.0 0.0 0.00 0.00 0.00 94 1013.9
20260905080049 22 0 0.0 0.0 0.00 0.00 0.00 94 1014.0
20260905074616 22 0 0.0 0.0 0.00 0.00 0.00 94 1013.9
20260905073053 22 0 0.0 0.0 0.00 0.00 0.00 94 1014.1
20260905071550 22 0 0.0 0.0 0.00 0.00 0.00 94 1014.2
20260905070106 22 0 0.0 0.0 0.00 0.00 0.00 93 1014.1
20260905064556 23 0 0.0 0.0 0.00 0.00 0.00 93 1014.1
20260905063052 23 0 0.0 0.0 0.00 0.00 0.00 92 1014.0
20260905061600 23 0 0.0 0.0 0.00 0.00 0.00 93 1014.0
20260905060051 23 0 0.0 0.0 0.00 0.00 0.00 93 1013.9
20260905054603 23 0 0.0 0.0 0.00 0.00 0.00 92 1014.0
20260905053052 23 0 0.0 0.0 0.00 0.00 0.00 92 1014.1
20260905051551 23 0 0.0 0.0 0.00 0.00 0.00 92 1014.2
20260905050051 23 0 0.0 0.0 0.00 0.00 0.00 91 1014.1
20260905044557 23 0 0.0 0.0 0.00 0.00 0.00 90 1014.3
20260905043053 23 0 0.0 0.0 0.00 0.00 0.00 90 1014.4
20260905041556 24 0 0.0 0.0 0.00 0.00 0.00 89 1014.5
20260905040053 24 0 0.0 0.0 0.00 0.00 0.00 88 1014.6
20260905034556 24 0 0.0 0.0 0.00 0.00 0.00 87 1014.6
20260905033054 24 0 0.0 0.0 0.00 0.00 0.00 87 1014.6
20260905031551 25 0 0.0 0.0 0.00 0.00 0.00 86 1014.7
20260905030049 25 0 0.0 0.0 0.00 0.00 0.00 86 1014.9
20260905024600 25 0 0.0 0.0 0.00 0.00 0.00 84 1015.1